Time,TemperatureF,DewpointF,PressureIn,WindDirection,WindDirectionDegrees,WindSpeedMPH,WindSpeedGustMPH,Humidity,HourlyPrecipIn,Conditions,Clouds,dailyrainin,SoftwareType,DateUTC
2013-03-19 00:00:00,67.8,66.0,29.94,NNW,333,0.0,0.0,94,0.00,RA,OVC,0.00,WeatherDisplay:10.37,2013-03-19 04:00:00,
2013-03-19 00:01:00,67.8,66.0,29.94,NNW,333,0.0,0.0,94,0.00,RA,OVC,0.00,WeatherDisplay:10.37,2013-03-19 04:01:00,
2013-03-19 00:02:00,67.8,66.0,29.94,NNW,333,0.0,0.0,94,0.00,RA,OVC,0.00,WeatherDisplay:10.37,2013-03-19 04:02:00,
2013-03-19 00:03:00,67.8,66.0,29.94,NNW,333,0.0,0.0,94,0.00,RA,OVC,0.00,WeatherDisplay:10.37,2013-03-19 04:03:00,
2013-03-19 00:08:00,67.9,66.1,29.94,NNW,333,0.0,0.0,94,0.00,RA,OVC,0.00,WeatherDisplay:10.37,2013-03-19 04:08:00,
2013-03-19 00:13:00,67.8,66.0,29.94,NNW,333,0.0,0.0,94,0.00,,OVC,0.00,WeatherDisplay:10.37,2013-03-19 04:13:00,
2013-03-19 00:18:00,67.8,66.0,29.93,NNW,333,0.0,0.0,94,0.00,,OVC,0.00,WeatherDisplay:10.37,2013-03-19 04:18:00,
2013-03-19 00:23:00,67.8,66.0,29.93,NNW,342,0.0,0.0,94,0.00,,OVC,0.00,WeatherDisplay:10.37,2013-03-19 04:23:00,
2013-03-19 00:28:00,67.9,66.1,29.93,NNW,342,0.0,0.0,94,0.00,,OVC,0.00,WeatherDisplay:10.37,2013-03-19 04:28:00,
2013-03-19 00:33:00,67.8,66.0,29.93,NNW,342,0.0,0.0,94,0.00,,OVC,0.00,WeatherDisplay:10.37,2013-03-19 04:33:00,
2013-03-19 00:38:00,67.8,66.0,29.93,NNW,342,0.0,0.0,94,0.00,,OVC,0.00,WeatherDisplay:10.37,2013-03-19 04:38:00,
2013-03-19 00:43:00,67.8,66.0,29.93,NNW,342,0.0,0.0,94,0.00,,OVC,0.00,WeatherDisplay:10.37,2013-03-19 04:43:00,
2013-03-19 00:48:00,67.8,66.0,29.92,ENE,71,0.0,0.0,94,0.00,,OVC,0.00,WeatherDisplay:10.37,2013-03-19 04:48:00,
2013-03-19 00:53:00,67.8,66.0,29.92,ENE,71,0.0,0.0,94,0.00,,OVC,0.00,WeatherDisplay:10.37,2013-03-19 04:53:00,
2013-03-19 00:58:00,67.9,66.1,29.92,ENE,71,0.0,0.0,94,0.00,,OVC,0.00,WeatherDisplay:10.37,2013-03-19 04:58:00,
2013-03-19 01:03:00,67.9,66.1,29.92,ENE,71,0.0,0.0,94,0.00,,OVC,0.00,WeatherDisplay:10.37,2013-03-19 05:03:00,
2013-03-19 01:08:00,67.9,66.1,29.92,ENE,71,0.0,0.0,94,0.00,,OVC,0.00,WeatherDisplay:10.37,2013-03-19 05:08:00,
2013-03-19 01:13:00,67.9,66.1,29.92,ENE,71,0.0,0.0,94,0.00,,OVC,0.00,WeatherDisplay:10.37,2013-03-19 05:13:00,
2013-03-19 01:18:00,68.1,66.3,29.92,SE,142,0.0,0.0,94,0.00,,OVC,0.00,WeatherDisplay:10.37,2013-03-19 05:18:00,
2013-03-19 01:23:00,68.1,66.3,29.92,SSE,160,0.0,0.0,94,0.00,,OVC,0.00,WeatherDisplay:10.37,2013-03-19 05:23:00,
2013-03-19 01:28:00,68.3,66.5,29.92,South,174,0.0,0.0,94,0.00,,OVC,0.00,WeatherDisplay:10.37,2013-03-19 05:28:00,
2013-03-19 01:33:00,68.4,66.6,29.92,South,174,0.0,0.0,94,0.00,,OVC,0.00,WeatherDisplay:10.37,2013-03-19 05:33:00,
2013-03-19 01:38:00,68.4,66.6,29.92,South,175,0.0,0.0,94,0.00,,OVC,0.00,WeatherDisplay:10.37,2013-03-19 05:38:00,
2013-03-19 01:43:00,68.4,66.6,29.92,South,178,0.0,0.0,94,0.00,,OVC,0.00,WeatherDisplay:10.37,2013-03-19 05:43:00,
2013-03-19 01:48:00,68.4,66.6,29.92,South,179,0.0,0.0,94,0.00,,OVC,0.00,WeatherDisplay:10.37,2013-03-19 05:48:00,
2013-03-19 01:53:00,68.4,66.6,29.92,South,179,0.0,0.0,94,0.00,,OVC,0.00,WeatherDisplay:10.37,2013-03-19 05:53:00,
2013-03-19 01:58:00,68.4,66.6,29.92,South,179,0.0,0.0,94,0.00,,OVC,0.00,WeatherDisplay:10.37,2013-03-19 05:58:00,
2013-03-19 02:03:00,68.4,66.6,29.91,South,179,0.0,0.0,94,0.00,,OVC,0.00,WeatherDisplay:10.37,2013-03-19 06:03:00,
2013-03-19 02:08:00,68.6,66.8,29.91,South,184,0.0,0.0,94,0.00,,OVC,0.00,WeatherDisplay:10.37,2013-03-19 06:08:00,
2013-03-19 02:13:00,68.6,66.8,29.91,South,185,0.0,0.0,94,0.00,,OVC,0.00,WeatherDisplay:10.37,2013-03-19 06:13:00,
2013-03-19 02:18:00,68.6,66.8,29.90,South,187,0.0,0.0,94,0.00,,OVC,0.00,WeatherDisplay:10.37,2013-03-19 06:18:00,
2013-03-19 02:23:00,68.8,67.0,29.90,South,186,0.0,0.0,94,0.00,,OVC,0.00,WeatherDisplay:10.37,2013-03-19 06:23:00,
2013-03-19 02:28:00,68.8,67.0,29.90,SSW,196,0.0,0.0,94,0.00,,OVC,0.00,WeatherDisplay:10.37,2013-03-19 06:28:00,
2013-03-19 02:33:00,68.9,67.1,29.90,SSW,199,0.0,0.0,94,0.00,,OVC,0.00,WeatherDisplay:10.37,2013-03-19 06:33:00,
2013-03-19 02:38:00,68.9,67.1,29.90,SSW,213,0.0,0.0,94,0.00,,OVC,0.00,WeatherDisplay:10.37,2013-03-19 06:38:00,
2013-03-19 02:43:00,68.9,67.1,29.90,SSW,200,6.9,6.9,94,0.00,,OVC,0.00,WeatherDisplay:10.37,2013-03-19 06:43:00,
2013-03-19 02:49:00,68.8,67.0,29.90,SW,234,10.4,10.4,94,0.00,,OVC,0.00,WeatherDisplay:10.37,2013-03-19 06:49:00,
2013-03-19 02:54:00,68.8,67.0,29.90,SSW,211,11.5,11.5,94,0.00,,OVC,0.00,WeatherDisplay:10.37,2013-03-19 06:54:00,
2013-03-19 02:59:00,68.9,67.1,29.90,SSW,209,0.0,5.0,94,0.00,,OVC,0.00,WeatherDisplay:10.37,2013-03-19 06:59:00,
2013-03-19 03:04:00,68.9,67.1,29.91,SSW,210,9.2,9.2,94,0.00,,OVC,0.00,WeatherDisplay:10.37,2013-03-19 07:04:00,
2013-03-19 03:09:00,69.1,67.3,29.91,SW,228,11.5,11.5,94,0.00,,OVC,0.00,WeatherDisplay:10.37,2013-03-19 07:09:00,
2013-03-19 03:14:00,69.3,67.5,29.91,SSW,194,0.0,0.0,94,0.00,,OVC,0.00,WeatherDisplay:10.37,2013-03-19 07:14:00,
2013-03-19 03:19:00,69.4,67.6,29.90,SSW,192,11.5,11.5,94,0.00,,OVC,0.00,WeatherDisplay:10.37,2013-03-19 07:19:00,
2013-03-19 03:24:00,69.6,67.8,29.90,SSW,196,10.4,10.4,94,0.00,,OVC,0.00,WeatherDisplay:10.37,2013-03-19 07:24:00,
2013-03-19 03:29:00,69.8,68.0,29.90,South,170,8.0,8.0,94,0.00,,OVC,0.00,WeatherDisplay:10.37,2013-03-19 07:29:00,
2013-03-19 03:34:00,69.9,68.1,29.88,SSW,192,11.5,11.5,94,0.00,,OVC,0.00,WeatherDisplay:10.37,2013-03-19 07:34:00,
2013-03-19 03:39:00,70.1,68.3,29.88,South,180,11.5,11.5,94,0.00,,OVC,0.00,WeatherDisplay:10.37,2013-03-19 07:39:00,
2013-03-19 03:44:00,70.3,68.8,29.88,SSE,166,21.9,21.9,95,0.00,,OVC,0.00,WeatherDisplay:10.37,2013-03-19 07:44:00,
2013-03-19 03:49:00,70.3,68.8,29.86,SSW,213,31.1,31.1,95,0.00,,OVC,0.00,WeatherDisplay:10.37,2013-03-19 07:49:00,
2013-03-19 03:54:00,70.4,68.9,29.86,South,178,19.6,19.6,95,0.00,,OVC,0.00,WeatherDisplay:10.37,2013-03-19 07:54:00,
2013-03-19 03:59:00,70.6,69.1,29.86,South,184,24.2,24.2,95,0.00,,OVC,0.00,WeatherDisplay:10.37,2013-03-19 07:59:00,
2013-03-19 04:04:00,70.8,69.3,29.84,SSW,200,20.7,20.7,95,0.00,,OVC,0.00,WeatherDisplay:10.37,2013-03-19 08:04:00,
2013-03-19 04:09:00,70.9,69.4,29.84,South,184,25.3,25.3,95,0.00,,OVC,0.00,WeatherDisplay:10.37,2013-03-19 08:09:00,
2013-03-19 04:14:00,70.9,69.4,29.84,South,182,21.9,21.9,95,0.00,,OVC,0.00,WeatherDisplay:10.37,2013-03-19 08:14:00,
2013-03-19 04:19:00,71.1,69.6,29.82,South,186,19.6,19.6,95,0.00,,OVC,0.00,WeatherDisplay:10.37,2013-03-19 08:19:00,
2013-03-19 04:24:00,71.1,69.3,29.82,SW,232,38.0,38.0,94,0.00,,OVC,0.00,WeatherDisplay:10.37,2013-03-19 08:24:00,
2013-03-19 04:29:00,71.3,69.5,29.82,SE,144,16.1,16.1,94,0.00,,OVC,0.00,WeatherDisplay:10.37,2013-03-19 08:29:00,
2013-03-19 04:34:00,71.3,69.5,29.80,SSE,163,35.0,35.0,94,0.00,,OVC,0.00,WeatherDisplay:10.37,2013-03-19 08:34:00,
2013-03-19 04:39:00,71.3,69.5,29.80,South,174,20.7,20.7,94,0.00,,OVC,0.00,WeatherDisplay:10.37,2013-03-19 08:39:00,
2013-03-19 04:44:00,71.5,69.7,29.80,South,178,26.5,26.5,94,0.00,,OVC,0.00,WeatherDisplay:10.37,2013-03-19 08:44:00,
2013-03-19 04:49:00,71.6,69.8,29.80,South,188,31.1,31.1,94,0.00,,OVC,0.00,WeatherDisplay:10.37,2013-03-19 08:49:00,
2013-03-19 04:54:00,71.6,69.5,29.80,SSW,196,19.6,19.6,93,0.00,,OVC,0.00,WeatherDisplay:10.37,2013-03-19 08:54:00,
2013-03-19 04:59:00,71.5,69.4,29.80,SW,214,18.4,18.4,93,0.00,,OVC,0.00,WeatherDisplay:10.37,2013-03-19 08:59:00,
2013-03-19 05:04:00,71.5,69.4,29.83,SSW,213,17.3,17.3,93,0.00,,OVC,0.00,WeatherDisplay:10.37,2013-03-19 09:04:00,
2013-03-19 05:09:00,71.5,69.4,29.83,North,355,11.5,11.5,93,0.00,,OVC,0.00,WeatherDisplay:10.37,2013-03-19 09:09:00,
2013-03-19 05:14:00,71.5,69.4,29.88,NNW,328,18.4,18.4,93,0.00,,OVC,0.00,WeatherDisplay:10.37,2013-03-19 09:14:00,
2013-03-19 05:19:00,71.6,69.5,29.88,NW,323,11.5,11.5,93,0.00,,OVC,0.00,WeatherDisplay:10.37,2013-03-19 09:19:00,
2013-03-19 05:24:00,71.5,69.4,29.88,West,277,0.0,0.0,93,0.00,,OVC,0.00,WeatherDisplay:10.37,2013-03-19 09:24:00,
2013-03-19 05:29:00,71.5,69.4,29.86,West,277,0.0,0.0,93,0.00,,OVC,0.00,WeatherDisplay:10.37,2013-03-19 09:29:00,
2013-03-19 05:34:00,71.5,69.4,29.86,NW,308,4.6,4.6,93,0.00,,OVC,0.00,WeatherDisplay:10.37,2013-03-19 09:34:00,
2013-03-19 05:39:00,71.5,69.4,29.86,NW,304,15.0,15.0,93,0.00,,OVC,0.00,WeatherDisplay:10.37,2013-03-19 09:39:00,
2013-03-19 05:44:00,71.5,69.1,29.89,NW,325,0.0,0.0,92,0.00,,OVC,0.00,WeatherDisplay:10.37,2013-03-19 09:44:00,
2013-03-19 05:49:00,71.5,69.1,29.89,NNW,327,3.5,3.5,92,0.00,,OVC,0.00,WeatherDisplay:10.37,2013-03-19 09:49:00,
2013-03-19 05:54:00,71.3,68.9,29.89,NW,323,8.1,8.1,92,0.00,,OVC,0.00,WeatherDisplay:10.37,2013-03-19 09:54:00,
2013-03-19 05:59:00,71.3,68.9,29.90,NW,313,11.5,11.5,92,0.00,,OVC,0.00,WeatherDisplay:10.37,2013-03-19 09:59:00,
2013-03-19 06:04:00,71.3,68.9,29.90,WNW,293,4.6,4.6,92,0.00,,OVC,0.00,WeatherDisplay:10.37,2013-03-19 10:04:00,
2013-03-19 06:09:00,71.3,68.9,29.90,WNW,294,0.0,0.0,92,0.00,,OVC,0.00,WeatherDisplay:10.37,2013-03-19 10:09:00,
2013-03-19 06:14:00,71.3,68.9,29.91,WNW,296,0.0,0.0,92,0.00,,OVC,0.00,WeatherDisplay:10.37,2013-03-19 10:14:00,
2013-03-19 06:19:00,71.1,68.7,29.91,West,273,8.0,8.0,92,0.00,,OVC,0.00,WeatherDisplay:10.37,2013-03-19 10:19:00,
2013-03-19 06:24:00,71.1,68.7,29.91,West,275,0.0,0.0,92,0.00,,OVC,0.00,WeatherDisplay:10.37,2013-03-19 10:24:00,
2013-03-19 06:29:00,71.1,68.7,29.92,West,276,0.0,0.0,92,0.00,,OVC,0.00,WeatherDisplay:10.37,2013-03-19 10:29:00,
2013-03-19 06:34:00,70.9,68.5,29.92,WNW,283,0.0,0.0,92,0.00,,OVC,0.00,WeatherDisplay:10.37,2013-03-19 10:34:00,
2013-03-19 06:39:00,70.9,68.5,29.92,WNW,283,0.0,0.3,92,0.00,,OVC,0.00,WeatherDisplay:10.37,2013-03-19 10:39:00,
2013-03-19 06:44:00,70.9,68.5,29.91,WNW,283,0.0,0.0,92,0.00,,OVC,0.00,WeatherDisplay:10.37,2013-03-19 10:44:00,
2013-03-19 06:49:00,70.9,68.1,29.91,WNW,283,0.0,0.0,91,0.00,,OVC,0.00,WeatherDisplay:10.37,2013-03-19 10:49:00,
2013-03-19 06:54:00,70.8,68.0,29.91,WNW,283,0.0,0.0,91,0.00,,OVC,0.00,WeatherDisplay:10.37,2013-03-19 10:54:00,
2013-03-19 06:59:00,70.8,68.0,29.92,West,281,5.0,5.0,91,0.00,,OVC,0.00,WeatherDisplay:10.37,2013-03-19 10:59:00,
2013-03-19 07:04:00,70.6,67.8,29.92,WNW,283,1.0,1.0,91,0.00,,OVC,0.00,WeatherDisplay:10.37,2013-03-19 11:04:00,
2013-03-19 07:09:00,70.6,67.8,29.92,WSW,245,11.0,11.0,91,0.00,,OVC,0.00,WeatherDisplay:10.37,2013-03-19 11:09:00,
2013-03-19 07:14:00,70.6,67.8,29.93,WSW,248,4.0,4.0,91,0.00,,OVC,0.00,WeatherDisplay:10.37,2013-03-19 11:14:00,
2013-03-19 07:19:00,70.4,67.6,29.93,WSW,238,3.0,3.0,91,0.00,,OVC,0.00,WeatherDisplay:10.37,2013-03-19 11:19:00,
2013-03-19 07:24:00,70.4,67.6,29.93,WSW,246,5.8,5.8,91,0.00,,OVC,0.00,WeatherDisplay:10.37,2013-03-19 11:24:00,
2013-03-19 07:29:00,70.3,67.5,29.93,West,269,7.0,7.0,91,0.00,,OVC,0.00,WeatherDisplay:10.37,2013-03-19 11:29:00,
2013-03-19 07:34:00,70.3,67.5,29.93,West,267,4.6,4.6,91,0.00,,OVC,0.00,WeatherDisplay:10.37,2013-03-19 11:34:00,
2013-03-19 07:39:00,70.1,67.3,29.93,West,266,0.0,0.0,91,0.00,,OVC,0.00,WeatherDisplay:10.37,2013-03-19 11:39:00,
2013-03-19 07:44:00,70.1,67.3,29.94,WSW,254,9.2,9.2,91,0.00,,OVC,0.00,WeatherDisplay:10.37,2013-03-19 11:44:00,
2013-03-19 07:49:00,70.1,67.3,29.94,WSW,251,6.9,6.9,91,0.00,,OVC,0.00,WeatherDisplay:10.37,2013-03-19 11:49:00,
2013-03-19 07:54:00,70.1,67.3,29.94,WSW,253,1.2,1.2,91,0.00,,OVC,0.00,WeatherDisplay:10.37,2013-03-19 11:54:00,
2013-03-19 07:59:00,70.1,67.3,29.94,WSW,250,4.0,4.0,91,0.00,,OVC,0.00,WeatherDisplay:10.37,2013-03-19 11:59:00,
2013-03-19 08:04:00,70.1,67.3,29.94,WSW,257,6.0,6.0,91,0.00,,OVC,0.00,WeatherDisplay:10.37,2013-03-19 12:04:00,
2013-03-19 08:09:00,70.1,67.3,29.94,WSW,244,11.5,11.5,91,0.00,,OVC,0.00,WeatherDisplay:10.37,2013-03-19 12:09:00,
2013-03-19 08:14:00,70.3,67.5,29.95,WSW,249,13.8,13.8,91,0.00,,OVC,0.00,WeatherDisplay:10.37,2013-03-19 12:14:00,
2013-03-19 08:19:00,70.3,67.2,29.95,WSW,248,15.0,15.0,90,0.00,,OVC,0.00,WeatherDisplay:10.37,2013-03-19 12:19:00,
2013-03-19 08:24:00,70.4,67.3,29.95,West,267,6.9,0.0,90,0.00,,OVC,0.00,WeatherDisplay:10.37,2013-03-19 12:24:00,
2013-03-19 08:29:00,70.6,67.5,29.95,WSW,254,13.0,13.0,90,0.00,,OVC,0.00,WeatherDisplay:10.37,2013-03-19 12:29:00,
2013-03-19 08:35:00,70.8,67.7,29.95,NW,304,16.1,16.1,90,0.00,,OVC,0.00,WeatherDisplay:10.37,2013-03-19 12:35:00,
2013-03-19 08:40:00,70.9,67.5,29.95,West,265,12.7,12.7,89,0.00,,OVC,0.00,WeatherDisplay:10.37,2013-03-19 12:40:00,
2013-03-19 08:45:00,71.1,67.7,29.95,WNW,289,18.4,18.4,89,0.00,,OVC,0.00,WeatherDisplay:10.37,2013-03-19 12:45:00,
2013-03-19 08:50:00,71.1,69.0,29.95,WSW,252,8.1,8.1,93,0.00,,OVC,0.00,WeatherDisplay:10.37,2013-03-19 12:50:00,
2013-03-19 08:55:00,71.1,67.7,29.95,WSW,244,0.0,0.0,89,0.00,,OVC,0.00,WeatherDisplay:10.37,2013-03-19 12:55:00,
2013-03-19 09:00:00,70.9,67.5,29.95,WNW,290,2.3,0.0,89,0.00,,OVC,0.00,WeatherDisplay:10.37,2013-03-19 13:00:00,
2013-03-19 09:05:00,70.9,67.5,29.95,WSW,242,4.6,4.6,89,0.00,,OVC,0.00,WeatherDisplay:10.37,2013-03-19 13:05:00,
2013-03-19 09:10:00,70.9,67.5,29.95,West,269,5.8,5.8,89,0.00,,OVC,0.00,WeatherDisplay:10.37,2013-03-19 13:10:00,
2013-03-19 09:15:00,71.1,67.7,29.95,WNW,294,4.6,0.0,89,0.00,,OVC,0.00,WeatherDisplay:10.37,2013-03-19 13:15:00,
2013-03-19 09:20:00,71.1,67.7,29.95,NW,305,4.6,4.6,89,0.00,,OVC,0.00,WeatherDisplay:10.37,2013-03-19 13:20:00,
2013-03-19 09:25:00,71.1,67.7,29.95,WSW,251,8.1,8.1,89,0.00,,OVC,0.00,WeatherDisplay:10.37,2013-03-19 13:25:00,
2013-03-19 09:30:00,71.1,67.7,29.95,WSW,251,1.0,1.0,89,0.00,,OVC,0.00,WeatherDisplay:10.37,2013-03-19 13:30:00,
2013-03-19 09:35:00,71.1,67.7,29.95,West,269,0.0,0.0,89,0.00,,OVC,0.00,WeatherDisplay:10.37,2013-03-19 13:35:00,
2013-03-19 09:40:00,71.1,67.7,29.95,West,274,0.0,3.5,89,0.00,,OVC,0.00,WeatherDisplay:10.37,2013-03-19 13:40:00,
2013-03-19 09:45:00,71.1,67.7,29.94,West,274,0.0,0.0,89,0.00,,OVC,0.00,WeatherDisplay:10.37,2013-03-19 13:45:00,
2013-03-19 09:50:00,71.1,67.7,29.94,West,274,0.0,0.0,89,0.00,,OVC,0.00,WeatherDisplay:10.37,2013-03-19 13:50:00,
2013-03-19 09:55:00,71.1,67.7,29.94,West,275,0.0,0.0,89,0.00,,OVC,0.00,WeatherDisplay:10.37,2013-03-19 13:55:00,
2013-03-19 10:00:00,71.1,67.7,29.93,West,275,0.0,0.0,89,0.00,,OVC,0.00,WeatherDisplay:10.37,2013-03-19 14:00:00,
2013-03-19 10:05:00,71.3,67.9,29.93,West,275,0.0,0.0,89,0.00,,OVC,0.00,WeatherDisplay:10.37,2013-03-19 14:05:00,
2013-03-19 10:10:00,71.3,67.9,29.93,West,275,0.0,0.0,89,0.00,,OVC,0.00,WeatherDisplay:10.37,2013-03-19 14:10:00,
2013-03-19 10:15:00,71.3,67.9,29.93,West,275,0.0,0.0,89,0.00,,OVC,0.00,WeatherDisplay:10.37,2013-03-19 14:15:00,
2013-03-19 10:20:00,70.9,67.2,29.93,NW,311,5.8,5.8,88,0.00,,OVC,0.00,WeatherDisplay:10.37,2013-03-19 14:20:00,
2013-03-19 10:25:00,70.9,67.2,29.93,NW,313,13.8,13.8,88,0.00,,OVC,0.00,WeatherDisplay:10.37,2013-03-19 14:25:00,
2013-03-19 10:30:00,71.1,67.4,29.96,WNW,300,10.4,10.4,88,0.00,,OVC,0.00,WeatherDisplay:10.37,2013-03-19 14:30:00,
2013-03-19 10:35:00,71.1,67.4,29.96,NW,305,10.0,10.0,88,0.00,,OVC,0.00,WeatherDisplay:10.37,2013-03-19 14:35:00,
2013-03-19 10:40:00,71.1,67.4,29.96,WNW,303,0.0,0.0,88,0.00,,OVC,0.00,WeatherDisplay:10.37,2013-03-19 14:40:00,
2013-03-19 10:45:00,70.9,66.8,29.97,WNW,290,8.1,8.1,87,0.00,,OVC,0.00,WeatherDisplay:10.37,2013-03-19 14:45:00,
2013-03-19 10:50:00,70.9,66.8,29.97,WNW,297,0.0,0.0,87,0.00,,OVC,0.00,WeatherDisplay:10.37,2013-03-19 14:50:00,
2013-03-19 10:55:00,70.9,66.8,29.97,NNW,346,0.0,0.0,87,0.00,,OVC,0.00,WeatherDisplay:10.37,2013-03-19 14:55:00,
2013-03-19 11:00:00,71.1,67.0,29.96,NNW,342,4.0,4.0,87,0.00,,OVC,0.00,WeatherDisplay:10.37,2013-03-19 15:00:00,
2013-03-19 11:05:00,71.3,66.9,29.96,NW,311,4.0,4.0,86,0.00,,OVC,0.00,WeatherDisplay:10.37,2013-03-19 15:05:00,
2013-03-19 11:10:00,71.6,67.2,29.96,NNW,331,0.0,0.0,86,0.00,,OVC,0.00,WeatherDisplay:10.37,2013-03-19 15:10:00,
2013-03-19 11:15:00,72.0,67.2,29.96,NW,320,0.0,0.0,85,0.00,,OVC,0.00,WeatherDisplay:10.37,2013-03-19 15:15:00,
2013-03-19 11:20:00,72.3,67.2,29.96,WNW,298,14.0,14.0,84,0.00,,OVC,0.00,WeatherDisplay:10.37,2013-03-19 15:20:00,
2013-03-19 11:25:00,72.5,67.0,29.96,WNW,288,4.6,4.6,83,0.00,,OVC,0.00,WeatherDisplay:10.37,2013-03-19 15:25:00,
2013-03-19 11:30:00,72.7,66.9,29.98,WSW,240,5.8,0.0,82,0.00,,OVC,0.00,WeatherDisplay:10.37,2013-03-19 15:30:00,
2013-03-19 11:35:00,73.0,67.2,29.98,West,273,8.1,8.1,82,0.00,,OVC,0.00,WeatherDisplay:10.37,2013-03-19 15:35:00,
2013-03-19 11:40:00,73.2,67.0,29.98,NNW,347,15.0,15.0,81,0.00,,OVC,0.00,WeatherDisplay:10.37,2013-03-19 15:40:00,
2013-03-19 11:45:00,73.5,67.3,29.97,West,275,4.0,4.0,81,0.00,,OVC,0.00,WeatherDisplay:10.37,2013-03-19 15:45:00,
2013-03-19 11:50:00,73.7,67.1,29.97,NNW,341,12.0,12.0,80,0.00,,OVC,0.00,WeatherDisplay:10.37,2013-03-19 15:50:00,
2013-03-19 11:55:00,73.9,66.6,29.97,WNW,284,11.5,11.5,78,0.00,,OVC,0.00,WeatherDisplay:10.37,2013-03-19 15:55:00,
2013-03-19 12:00:00,74.0,66.7,29.98,NNW,339,16.1,16.1,78,0.00,,OVC,0.00,WeatherDisplay:10.37,2013-03-19 16:00:00,
2013-03-19 12:05:00,74.4,67.1,29.98,WNW,284,11.0,11.0,78,0.00,,OVC,0.00,WeatherDisplay:10.37,2013-03-19 16:05:00,
2013-03-19 12:10:00,74.6,67.3,29.98,WNW,282,10.4,10.4,78,0.00,,OVC,0.00,WeatherDisplay:10.37,2013-03-19 16:10:00,
2013-03-19 12:15:00,74.7,67.0,29.98,West,276,0.0,0.0,77,0.00,,OVC,0.00,WeatherDisplay:10.37,2013-03-19 16:15:00,
2013-03-19 12:20:00,75.3,67.6,29.98,WNW,283,0.0,0.0,77,0.00,,OVC,0.00,WeatherDisplay:10.37,2013-03-19 16:20:00,
2013-03-19 12:25:00,75.6,67.1,29.98,NW,317,5.8,5.8,75,0.00,,OVC,0.00,WeatherDisplay:10.37,2013-03-19 16:25:00,
2013-03-19 12:30:00,75.6,66.3,29.98,West,271,6.9,6.9,73,0.00,,OVC,0.00,WeatherDisplay:10.37,2013-03-19 16:30:00,
2013-03-19 12:35:00,76.0,66.7,29.98,WNW,294,8.1,8.1,73,0.00,,OVC,0.00,WeatherDisplay:10.37,2013-03-19 16:35:00,
2013-03-19 12:40:00,76.0,65.9,29.98,SW,217,11.5,11.5,71,0.00,,OVC,0.00,WeatherDisplay:10.37,2013-03-19 16:40:00,
2013-03-19 12:46:00,76.1,65.6,29.99,WSW,237,15.0,15.0,70,0.00,,OVC,0.00,WeatherDisplay:10.37,2013-03-19 16:46:00,
2013-03-19 12:51:00,76.1,65.6,29.99,West,276,11.5,11.5,70,0.00,,OVC,0.00,WeatherDisplay:10.37,2013-03-19 16:51:00,
2013-03-19 12:56:00,76.3,66.2,29.99,West,271,6.0,6.0,71,0.00,,OVC,0.00,WeatherDisplay:10.37,2013-03-19 16:56:00,
2013-03-19 13:01:00,76.5,66.4,29.98,WSW,252,9.2,9.2,71,0.00,,OVC,0.00,WeatherDisplay:10.37,2013-03-19 17:01:00,
2013-03-19 13:06:00,76.7,66.6,29.98,NW,310,0.0,0.0,71,0.00,,OVC,0.00,WeatherDisplay:10.37,2013-03-19 17:06:00,
2013-03-19 13:11:00,76.8,66.7,29.98,West,263,4.6,0.0,71,0.00,,OVC,0.00,WeatherDisplay:10.37,2013-03-19 17:11:00,
2013-03-19 13:16:00,77.0,66.5,29.98,WSW,240,8.1,8.1,70,0.00,,OVC,0.00,WeatherDisplay:10.37,2013-03-19 17:16:00,
2013-03-19 13:21:00,77.2,66.7,29.98,WNW,298,0.0,0.0,70,0.00,,OVC,0.00,WeatherDisplay:10.37,2013-03-19 17:21:00,
2013-03-19 13:26:00,77.4,66.8,29.98,WNW,285,6.9,0.0,70,0.00,,OVC,0.00,WeatherDisplay:10.37,2013-03-19 17:26:00,
2013-03-19 13:32:00,77.6,66.6,29.96,WNW,286,11.5,11.5,69,0.00,,OVC,0.00,WeatherDisplay:10.37,2013-03-19 17:32:00,
2013-03-19 13:37:00,77.6,66.2,29.96,West,272,0.0,0.0,68,0.00,,OVC,0.00,WeatherDisplay:10.37,2013-03-19 17:37:00,
2013-03-19 13:42:00,77.6,65.8,29.96,North,5,7.0,7.0,67,0.00,,OVC,0.00,WeatherDisplay:10.37,2013-03-19 17:42:00,
2013-03-19 13:47:00,77.6,65.8,29.95,NNW,331,0.0,0.0,67,0.00,,OVC,0.00,WeatherDisplay:10.37,2013-03-19 17:47:00,
2013-03-19 13:52:00,77.9,65.6,29.95,NNW,328,0.0,0.0,66,0.00,,OVC,0.00,WeatherDisplay:10.37,2013-03-19 17:52:00,
2013-03-19 13:57:00,78.1,65.8,29.95,NNW,329,0.0,0.0,66,0.00,,OVC,0.00,WeatherDisplay:10.37,2013-03-19 17:57:00,
2013-03-19 14:02:00,78.1,65.4,29.95,WNW,290,6.9,6.9,65,0.00,,OVC,0.00,WeatherDisplay:10.37,2013-03-19 18:02:00,
2013-03-19 14:07:00,78.1,64.9,29.95,WNW,289,0.0,0.0,64,0.00,,OVC,0.00,WeatherDisplay:10.37,2013-03-19 18:07:00,
2013-03-19 14:12:00,77.9,64.7,29.95,WNW,286,0.0,0.0,64,0.00,,OVC,0.00,WeatherDisplay:10.37,2013-03-19 18:12:00,
2013-03-19 14:17:00,77.7,64.5,29.95,West,274,11.5,11.5,64,0.00,,OVC,0.00,WeatherDisplay:10.37,2013-03-19 18:17:00,
2013-03-19 14:22:00,77.9,64.7,29.95,NW,320,6.9,0.0,64,0.00,,OVC,0.00,WeatherDisplay:10.37,2013-03-19 18:22:00,
2013-03-19 14:27:00,77.9,64.7,29.95,NW,323,0.0,0.0,64,0.00,,OVC,0.00,WeatherDisplay:10.37,2013-03-19 18:27:00,
2013-03-19 14:32:00,77.7,64.1,29.94,SW,225,0.0,0.0,63,0.00,,OVC,0.00,WeatherDisplay:10.37,2013-03-19 18:32:00,
2013-03-19 14:38:00,77.7,64.1,29.94,WNW,298,5.8,5.8,63,0.00,,OVC,0.00,WeatherDisplay:10.37,2013-03-19 18:38:00,
2013-03-19 14:43:00,77.7,64.1,29.94,West,267,0.0,0.0,63,0.00,,OVC,0.00,WeatherDisplay:10.37,2013-03-19 18:43:00,
2013-03-19 14:48:00,77.7,64.5,29.93,West,272,0.0,0.0,64,0.00,,OVC,0.00,WeatherDisplay:10.37,2013-03-19 18:48:00,
2013-03-19 14:53:00,78.3,64.7,29.93,WNW,288,6.9,6.9,63,0.00,,OVC,0.00,WeatherDisplay:10.37,2013-03-19 18:53:00,
2013-03-19 14:58:00,78.6,64.5,29.93,WNW,298,9.0,9.0,62,0.00,,OVC,0.00,WeatherDisplay:10.37,2013-03-19 18:58:00,
2013-03-19 15:03:00,78.8,65.1,29.93,NW,309,0.0,0.0,63,0.00,,OVC,0.00,WeatherDisplay:10.37,2013-03-19 19:03:00,
2013-03-19 15:08:00,78.3,64.7,29.93,NW,318,13.0,13.0,63,0.00,,OVC,0.00,WeatherDisplay:10.37,2013-03-19 19:08:00,
2013-03-19 15:13:00,77.7,65.0,29.93,WNW,302,1.0,1.0,65,0.00,,OVC,0.00,WeatherDisplay:10.37,2013-03-19 19:13:00,
2013-03-19 15:18:00,77.6,64.9,29.92,NW,321,9.2,0.0,65,0.00,,OVC,0.00,WeatherDisplay:10.37,2013-03-19 19:18:00,
2013-03-19 15:23:00,77.6,64.9,29.92,WNW,288,12.7,12.7,65,0.00,,OVC,0.00,WeatherDisplay:10.37,2013-03-19 19:23:00,
2013-03-19 15:28:00,77.6,65.3,29.92,West,269,3.5,6.3,66,0.00,,OVC,0.00,WeatherDisplay:10.37,2013-03-19 19:28:00,
2013-03-19 15:33:00,77.6,64.9,29.92,WNW,286,15.0,15.0,65,0.00,,OVC,0.00,WeatherDisplay:10.37,2013-03-19 19:33:00,
2013-03-19 15:38:00,77.4,65.1,29.92,WNW,302,10.4,10.4,66,0.00,,OVC,0.00,WeatherDisplay:10.37,2013-03-19 19:38:00,
2013-03-19 15:43:00,77.7,65.4,29.92,WNW,294,8.1,8.1,66,0.00,,OVC,0.00,WeatherDisplay:10.37,2013-03-19 19:43:00,
2013-03-19 15:48:00,77.7,64.5,29.92,WNW,298,12.7,12.7,64,0.00,,OVC,0.00,WeatherDisplay:10.37,2013-03-19 19:48:00,
2013-03-19 15:53:00,77.7,65.0,29.92,WSW,253,9.0,9.0,65,0.00,,OVC,0.00,WeatherDisplay:10.37,2013-03-19 19:53:00,
2013-03-19 15:58:00,77.7,65.0,29.92,WNW,285,11.5,11.5,65,0.00,,OVC,0.00,WeatherDisplay:10.37,2013-03-19 19:58:00,
2013-03-19 16:03:00,77.7,64.5,29.92,WSW,242,7.0,7.0,64,0.00,,OVC,0.00,WeatherDisplay:10.37,2013-03-19 20:03:00,
2013-03-19 16:08:00,77.7,64.5,29.92,WNW,288,2.3,2.3,64,0.00,,OVC,0.00,WeatherDisplay:10.37,2013-03-19 20:08:00,
2013-03-19 16:13:00,77.6,64.5,29.92,NW,315,3.5,0.0,64,0.00,,OVC,0.00,WeatherDisplay:10.37,2013-03-19 20:13:00,
2013-03-19 16:18:00,77.6,64.5,29.90,NNW,340,6.9,6.9,64,0.00,,OVC,0.00,WeatherDisplay:10.37,2013-03-19 20:18:00,
2013-03-19 16:23:00,77.4,64.3,29.90,NNW,338,0.0,0.0,64,0.00,,OVC,0.00,WeatherDisplay:10.37,2013-03-19 20:23:00,
2013-03-19 16:28:00,77.7,65.0,29.90,NW,325,0.0,0.0,65,0.00,,OVC,0.00,WeatherDisplay:10.37,2013-03-19 20:28:00,
2013-03-19 16:33:00,78.1,64.9,29.90,NW,323,0.0,0.0,64,0.00,,OVC,0.00,WeatherDisplay:10.37,2013-03-19 20:33:00,
2013-03-19 16:38:00,77.9,64.7,29.90,NW,323,0.0,0.0,64,0.00,,OVC,0.00,WeatherDisplay:10.37,2013-03-19 20:38:00,
2013-03-19 16:43:00,77.7,64.1,29.90,WSW,244,8.1,8.1,63,0.00,,OVC,0.00,WeatherDisplay:10.37,2013-03-19 20:43:00,
2013-03-19 16:48:00,77.6,64.0,29.89,WSW,244,0.0,0.0,63,0.00,,OVC,0.00,WeatherDisplay:10.37,2013-03-19 20:48:00,
2013-03-19 16:53:00,77.6,64.5,29.89,WSW,244,0.0,0.0,64,0.00,,OVC,0.00,WeatherDisplay:10.37,2013-03-19 20:53:00,
2013-03-19 16:58:00,77.6,64.5,29.89,WSW,244,0.0,0.0,64,0.00,,OVC,0.00,WeatherDisplay:10.37,2013-03-19 20:58:00,
2013-03-19 17:03:00,77.4,64.3,29.89,WSW,244,0.0,0.0,64,0.00,,OVC,0.00,WeatherDisplay:10.37,2013-03-19 21:03:00,
2013-03-19 17:08:00,77.4,64.3,29.89,WSW,244,0.0,0.0,64,0.00,,OVC,0.00,WeatherDisplay:10.37,2013-03-19 21:08:00,
2013-03-19 17:13:00,77.4,64.3,29.89,WSW,244,0.0,0.0,64,0.00,,OVC,0.00,WeatherDisplay:10.37,2013-03-19 21:13:00,
2013-03-19 17:18:00,77.6,64.5,29.88,WSW,244,0.0,0.0,64,0.00,,OVC,0.00,WeatherDisplay:10.37,2013-03-19 21:18:00,
2013-03-19 17:23:00,77.6,64.5,29.88,WSW,244,0.0,0.0,64,0.00,,OVC,0.00,WeatherDisplay:10.37,2013-03-19 21:23:00,
2013-03-19 17:28:00,77.7,64.5,29.88,WSW,244,0.0,0.0,64,0.00,,OVC,0.00,WeatherDisplay:10.37,2013-03-19 21:28:00,
2013-03-19 17:33:00,77.6,64.5,29.87,South,182,0.0,0.0,64,0.00,,OVC,0.00,WeatherDisplay:10.37,2013-03-19 21:33:00,
2013-03-19 17:38:00,77.4,64.3,29.87,South,182,0.0,0.0,64,0.00,,OVC,0.00,WeatherDisplay:10.37,2013-03-19 21:38:00,
2013-03-19 17:43:00,77.4,64.3,29.87,South,182,0.0,0.0,64,0.00,,OVC,0.00,WeatherDisplay:10.37,2013-03-19 21:43:00,
2013-03-19 17:48:00,77.7,66.3,29.87,SE,126,10.4,10.4,68,0.00,,OVC,0.00,WeatherDisplay:10.37,2013-03-19 21:48:00,
2013-03-19 17:53:00,77.7,67.5,29.87,SE,142,10.4,10.4,71,0.00,,OVC,0.00,WeatherDisplay:10.37,2013-03-19 21:53:00,
2013-03-19 17:58:00,77.4,67.3,29.87,SE,140,7.0,7.0,71,0.00,,OVC,0.00,WeatherDisplay:10.37,2013-03-19 21:58:00,
2013-03-19 18:03:00,77.2,67.5,29.87,ESE,120,0.0,0.0,72,0.00,,OVC,0.00,WeatherDisplay:10.37,2013-03-19 22:03:00,
2013-03-19 18:08:00,77.2,67.9,29.87,ESE,121,0.0,0.0,73,0.00,,OVC,0.00,WeatherDisplay:10.37,2013-03-19 22:08:00,
2013-03-19 18:13:00,77.2,68.3,29.87,SE,134,0.0,0.5,74,0.00,,OVC,0.00,WeatherDisplay:10.37,2013-03-19 22:13:00,
2013-03-19 18:19:00,76.8,67.9,29.88,SE,138,2.3,2.3,74,0.00,,OVC,0.00,WeatherDisplay:10.37,2013-03-19 22:19:00,
2013-03-19 18:24:00,76.8,67.9,29.88,SE,138,11.5,0.0,74,0.00,,OVC,0.00,WeatherDisplay:10.37,2013-03-19 22:24:00,
2013-03-19 18:29:00,76.8,67.5,29.88,SE,138,0.0,0.0,73,0.00,,OVC,0.00,WeatherDisplay:10.37,2013-03-19 22:29:00,
2013-03-19 18:34:00,76.7,67.8,29.88,SE,130,0.0,0.0,74,0.00,,OVC,0.00,WeatherDisplay:10.37,2013-03-19 22:34:00,
2013-03-19 18:39:00,76.5,67.6,29.88,SE,130,0.0,0.0,74,0.00,,OVC,0.00,WeatherDisplay:10.37,2013-03-19 22:39:00,
2013-03-19 18:44:00,76.1,67.6,29.88,ENE,76,0.0,0.0,75,0.00,,OVC,0.00,WeatherDisplay:10.37,2013-03-19 22:44:00,
2013-03-19 18:49:00,75.8,67.3,29.89,ENE,76,0.0,0.0,75,0.00,,OVC,0.00,WeatherDisplay:10.37,2013-03-19 22:49:00,
2013-03-19 18:54:00,75.6,67.5,29.89,ENE,76,0.0,0.0,76,0.00,,OVC,0.00,WeatherDisplay:10.37,2013-03-19 22:54:00,
2013-03-19 18:59:00,75.6,67.5,29.89,ENE,76,0.0,0.0,76,0.00,,OVC,0.00,WeatherDisplay:10.37,2013-03-19 22:59:00,
2013-03-19 19:04:00,75.3,67.6,29.89,East,82,0.0,0.0,77,0.00,,OVC,0.00,WeatherDisplay:10.37,2013-03-19 23:04:00,
2013-03-19 19:09:00,75.1,67.8,29.89,East,81,0.0,0.0,78,0.00,,OVC,0.00,WeatherDisplay:10.37,2013-03-19 23:09:00,
2013-03-19 19:14:00,75.1,67.8,29.89,East,81,0.0,0.0,78,0.00,,OVC,0.00,WeatherDisplay:10.37,2013-03-19 23:14:00,
2013-03-19 19:19:00,74.9,67.6,29.90,East,81,0.0,0.0,78,0.00,,OVC,0.00,WeatherDisplay:10.37,2013-03-19 23:19:00,
2013-03-19 19:24:00,74.6,67.7,29.90,East,81,0.0,0.0,79,0.00,,OVC,0.00,WeatherDisplay:10.37,2013-03-19 23:24:00,
2013-03-19 19:29:00,74.4,67.5,29.90,East,81,0.0,0.0,79,0.00,,OVC,0.00,WeatherDisplay:10.37,2013-03-19 23:29:00,
2013-03-19 19:34:00,74.2,67.6,29.90,East,81,0.0,0.0,80,0.00,,OVC,0.00,WeatherDisplay:10.37,2013-03-19 23:34:00,
2013-03-19 19:39:00,74.0,67.4,29.90,East,81,0.0,0.0,80,0.00,,OVC,0.00,WeatherDisplay:10.37,2013-03-19 23:39:00,
2013-03-19 19:44:00,73.9,67.3,29.90,East,81,0.0,0.0,80,0.00,,OVC,0.00,WeatherDisplay:10.37,2013-03-19 23:44:00,
2013-03-19 19:49:00,73.7,67.5,29.91,East,81,0.0,0.0,81,0.00,,OVC,0.00,WeatherDisplay:10.37,2013-03-19 23:49:00,
2013-03-19 19:54:00,73.3,67.1,29.91,East,81,0.0,0.0,81,0.00,,OVC,0.00,WeatherDisplay:10.37,2013-03-19 23:54:00,
2013-03-19 19:59:00,73.2,67.0,29.91,East,81,0.0,0.0,81,0.00,,OVC,0.00,WeatherDisplay:10.37,2013-03-19 23:59:00,
2013-03-19 20:04:00,73.0,67.2,29.91,East,81,0.0,0.0,82,0.00,,OVC,0.00,WeatherDisplay:10.37,2013-03-20 00:04:00,
2013-03-19 20:09:00,72.8,67.0,29.91,East,81,0.0,0.0,82,0.00,,OVC,0.00,WeatherDisplay:10.37,2013-03-20 00:09:00,
2013-03-19 20:14:00,72.5,67.0,29.92,East,81,0.0,0.0,83,0.00,,OVC,0.00,WeatherDisplay:10.37,2013-03-20 00:14:00,
2013-03-19 20:19:00,72.3,66.8,29.92,East,81,0.0,0.0,83,0.00,,OVC,0.00,WeatherDisplay:10.37,2013-03-20 00:19:00,
2013-03-19 20:24:00,72.1,66.6,29.92,East,81,0.0,0.0,83,0.00,,OVC,0.00,WeatherDisplay:10.37,2013-03-20 00:24:00,
2013-03-19 20:29:00,72.0,66.6,29.92,East,81,0.0,0.0,83,0.00,,OVC,0.00,WeatherDisplay:10.37,2013-03-20 00:29:00,
2013-03-19 20:34:00,71.6,66.5,29.92,East,81,0.0,0.0,84,0.00,,OVC,0.00,WeatherDisplay:10.37,2013-03-20 00:34:00,
2013-03-19 20:39:00,71.5,66.4,29.92,East,81,0.0,0.0,84,0.00,,OVC,0.00,WeatherDisplay:10.37,2013-03-20 00:39:00,
2013-03-19 20:44:00,71.3,66.2,29.92,East,81,0.0,0.0,84,0.00,,OVC,0.00,WeatherDisplay:10.37,2013-03-20 00:44:00,
2013-03-19 20:49:00,71.1,66.4,29.92,East,81,0.0,0.0,85,0.00,,OVC,0.00,WeatherDisplay:10.37,2013-03-20 00:49:00,
2013-03-19 20:54:00,70.9,66.2,29.92,East,81,0.0,0.0,85,0.00,,OVC,0.00,WeatherDisplay:10.37,2013-03-20 00:54:00,
2013-03-19 20:59:00,70.8,66.4,29.92,East,81,0.0,0.0,86,0.00,,OVC,0.00,WeatherDisplay:10.37,2013-03-20 00:59:00,
2013-03-19 21:04:00,70.6,66.2,29.92,East,81,0.0,0.0,86,0.00,,OVC,0.00,WeatherDisplay:10.37,2013-03-20 01:04:00,
2013-03-19 21:09:00,70.4,66.0,29.92,East,81,0.0,0.0,86,0.00,,OVC,0.00,WeatherDisplay:10.37,2013-03-20 01:09:00,
2013-03-19 21:14:00,70.4,66.3,29.93,East,81,0.0,0.0,87,0.00,,OVC,0.00,WeatherDisplay:10.37,2013-03-20 01:14:00,
2013-03-19 21:19:00,70.3,66.2,29.93,East,81,0.0,0.0,87,0.00,,OVC,0.00,WeatherDisplay:10.37,2013-03-20 01:19:00,
2013-03-19 21:24:00,70.1,66.0,29.93,East,81,0.0,0.0,87,0.00,,OVC,0.00,WeatherDisplay:10.37,2013-03-20 01:24:00,
2013-03-19 21:29:00,69.8,65.8,29.93,East,81,0.0,0.0,87,0.00,,OVC,0.00,WeatherDisplay:10.37,2013-03-20 01:29:00,
2013-03-19 21:34:00,69.8,66.1,29.93,East,81,0.0,0.0,88,0.00,,OVC,0.00,WeatherDisplay:10.37,2013-03-20 01:34:00,
2013-03-19 21:39:00,69.6,65.9,29.93,East,81,0.0,0.0,88,0.00,,OVC,0.00,WeatherDisplay:10.37,2013-03-20 01:39:00,
2013-03-19 21:44:00,69.4,65.7,29.93,East,81,0.0,0.0,88,0.00,,OVC,0.00,WeatherDisplay:10.37,2013-03-20 01:44:00,
2013-03-19 21:49:00,69.4,65.7,29.93,East,81,0.0,0.0,88,0.00,,OVC,0.00,WeatherDisplay:10.37,2013-03-20 01:49:00,
2013-03-19 21:54:00,69.3,65.9,29.93,East,81,0.0,0.0,89,0.00,,OVC,0.00,WeatherDisplay:10.37,2013-03-20 01:54:00,
2013-03-19 21:59:00,69.4,66.0,29.93,East,81,0.0,0.0,89,0.00,,OVC,0.00,WeatherDisplay:10.37,2013-03-20 01:59:00,
2013-03-19 22:04:00,69.6,66.2,29.93,East,81,0.0,0.0,89,0.00,,OVC,0.00,WeatherDisplay:10.37,2013-03-20 02:04:00,
2013-03-19 22:09:00,69.4,66.0,29.93,East,81,0.0,0.0,89,0.00,,OVC,0.00,WeatherDisplay:10.37,2013-03-20 02:09:00,
2013-03-19 22:14:00,69.3,65.9,29.93,East,81,0.0,0.0,89,0.00,,OVC,0.00,WeatherDisplay:10.37,2013-03-20 02:14:00,
2013-03-19 22:19:00,69.1,65.7,29.93,East,81,0.0,0.0,89,0.00,,OVC,0.00,WeatherDisplay:10.37,2013-03-20 02:19:00,
2013-03-19 22:24:00,69.3,66.2,29.93,East,81,0.0,0.0,90,0.00,,OVC,0.00,WeatherDisplay:10.37,2013-03-20 02:24:00,
2013-03-19 22:29:00,69.6,66.5,29.93,East,81,0.0,0.0,90,0.00,,OVC,0.00,WeatherDisplay:10.37,2013-03-20 02:29:00,
2013-03-19 22:34:00,69.4,66.3,29.93,East,81,0.0,0.0,90,0.00,,OVC,0.00,WeatherDisplay:10.37,2013-03-20 02:34:00,
2013-03-19 22:39:00,69.3,66.2,29.93,East,81,0.0,0.0,90,0.00,,OVC,0.00,WeatherDisplay:10.37,2013-03-20 02:39:00,
2013-03-19 22:44:00,69.4,66.7,29.93,East,81,0.0,0.0,91,0.00,,OVC,0.00,WeatherDisplay:10.37,2013-03-20 02:44:00,
2013-03-19 22:49:00,69.4,66.7,29.93,East,81,0.0,0.0,91,0.00,,OVC,0.00,WeatherDisplay:10.37,2013-03-20 02:49:00,
2013-03-19 22:54:00,68.9,65.8,29.93,East,81,0.0,0.0,90,0.00,,OVC,0.00,WeatherDisplay:10.37,2013-03-20 02:54:00,
2013-03-19 22:59:00,68.6,65.9,29.93,East,81,0.0,0.0,91,0.00,,OVC,0.00,WeatherDisplay:10.37,2013-03-20 02:59:00,
2013-03-19 23:04:00,68.4,65.7,29.93,East,81,0.0,0.0,91,0.00,,OVC,0.00,WeatherDisplay:10.37,2013-03-20 03:04:00,
2013-03-19 23:09:00,68.1,65.4,29.93,East,81,0.0,0.0,91,0.00,,OVC,0.00,WeatherDisplay:10.37,2013-03-20 03:09:00,
2013-03-19 23:14:00,67.9,65.2,29.93,East,81,0.0,0.0,91,0.00,,OVC,0.00,WeatherDisplay:10.37,2013-03-20 03:14:00,
2013-03-19 23:19:00,67.8,65.1,29.93,East,81,0.0,0.0,91,0.00,,OVC,0.00,WeatherDisplay:10.37,2013-03-20 03:19:00,
2013-03-19 23:25:00,67.6,64.9,29.93,East,81,0.0,0.0,91,0.00,,OVC,0.00,WeatherDisplay:10.37,2013-03-20 03:25:00,
2013-03-19 23:30:00,67.4,64.7,29.93,East,81,0.0,0.0,91,0.00,,OVC,0.00,WeatherDisplay:10.37,2013-03-20 03:30:00,
2013-03-19 23:35:00,67.4,64.7,29.93,East,81,0.0,0.0,91,0.00,,OVC,0.00,WeatherDisplay:10.37,2013-03-20 03:35:00,
2013-03-19 23:40:00,67.8,65.4,29.93,East,81,0.0,0.0,92,0.00,,OVC,0.00,WeatherDisplay:10.37,2013-03-20 03:40:00,
2013-03-19 23:45:00,68.4,66.0,29.92,East,81,0.0,0.0,92,0.00,,OVC,0.00,WeatherDisplay:10.37,2013-03-20 03:45:00,
2013-03-19 23:50:00,68.4,66.0,29.92,East,81,0.0,0.0,92,0.00,,OVC,0.00,WeatherDisplay:10.37,2013-03-20 03:50:00,
2013-03-19 23:55:00,68.4,66.0,29.92,East,81,0.0,0.0,92,0.00,,OVC,0.00,WeatherDisplay:10.37,2013-03-20 03:55:00,